Date String (YYYY-MM-DD hh:mm:ss) UTC,Instrument flags,Ambient pressure (hPa),Sample flow (lpm),Bypass flow (lpm),Sample temperature (°C),Ambient temperature (°C),ASC tube jacket temperature (°C),LED temperature (°C),Box temperature (°C),Sample RH (%),Span deviation,Mass concentration (μg/m³),Mass concentration (μg/m³),Mass concentration (μg/m³)
DateTimeUTC,F1_M11,P_M11,Q1_M11,Q2_M11,T1_M11,T2_M11,T3_M11,T4_M11,T5_M11,U1_M11,ZSPAN_M11,X0_M11,X2_M11,X1_M11
2023-04-27 06:00:00,,0828.3,5.00,0.00,23.7,22.3,00.0,32.1,25.3,21.3,0000.0,0008.94,0003.48,0003.07
2023-04-27 06:01:00,,0828.3,5.00,0.00,23.7,22.3,00.0,32.1,25.4,21.4,0000.0,0009.03,0003.46,0003.02
2023-04-27 06:02:00,,0828.3,5.00,0.00,23.7,22.4,00.0,32.1,25.4,21.5,0000.0,0008.93,0003.41,0002.96
2023-04-27 06:03:00,,0828.3,5.01,0.00,23.8,22.4,00.0,32.1,25.4,21.6,0000.0,0009.29,0003.36,0002.93
2023-04-27 06:04:00,,0828.3,5.00,0.00,23.8,22.4,00.0,32.1,25.4,21.7,0000.0,0008.84,0003.36,0002.95
2023-04-27 06:05:00,,0828.3,4.99,0.00,23.8,22.4,00.0,32.1,25.4,21.9,0000.0,0008.06,0003.41,0002.97
2023-04-27 06:06:00,,0828.3,5.01,0.00,23.8,22.4,00.0,32.1,25.4,21.8,0000.0,0008.14,0003.48,0003.01
2023-04-27 06:07:00,,0828.3,5.01,0.00,23.8,22.4,00.0,32.1,25.4,21.7,0000.0,0008.23,0003.52,0003.02
2023-04-27 06:08:00,,0828.3,4.99,0.00,23.8,22.3,00.0,32.1,25.3,21.9,0000.0,0008.42,0003.56,0003.06
2023-04-27 06:09:00,,0828.3,5.00,0.00,23.8,22.3,00.0,32.1,25.4,22.1,0000.0,0008.88,0003.61,0003.09
2023-04-27 06:10:00,,0828.3,5.01,0.00,23.8,22.3,00.0,32.1,25.3,22.2,0000.0,0009.44,0003.68,0003.13
2023-04-27 06:11:00,,0828.3,5.01,0.00,23.7,22.3,00.0,32.1,25.3,22.1,0000.0,0010.52,0003.70,0003.16
2023-04-27 06:12:00,,0828.3,4.99,0.00,23.7,22.2,00.0,32.1,25.3,22.1,0000.0,0011.59,0003.74,0003.19
2023-04-27 06:13:00,,0828.3,4.99,0.00,23.7,22.2,00.0,32.1,25.3,22.3,0000.0,0013.16,0003.80,0003.22
2023-04-27 06:14:00,,0828.4,5.00,0.00,23.7,22.1,00.0,32.1,25.2,22.2,0000.0,0012.86,0003.84,0003.24
2023-04-27 06:15:00,,0828.3,5.00,0.00,23.7,22.1,00.0,32.1,25.2,22.3,0000.0,0012.77,0003.86,0003.24
2023-04-27 06:16:00,,0828.3,5.01,0.00,23.7,22.0,00.0,32.1,25.2,22.3,0000.0,0013.12,0003.84,0003.25
2023-04-27 06:17:00,,0828.3,5.00,0.00,23.6,22.0,00.0,32.1,25.1,22.2,0000.0,0013.09,0003.78,0003.25
2023-04-27 06:18:00,,0828.3,4.99,0.00,23.6,22.0,00.0,32.1,25.1,22.2,0000.0,0013.12,0003.80,0003.27
2023-04-27 06:19:00,,0828.2,5.01,0.00,23.6,22.0,00.0,32.1,25.1,20.5,0000.0,0013.53,0003.78,0003.26
2023-04-27 06:20:00,,0828.3,5.01,0.00,23.6,22.1,00.0,32.1,25.2,18.7,0000.0,0013.37,0003.74,0003.22
2023-04-27 06:21:00,,0828.3,4.98,0.00,23.6,22.1,00.0,32.1,25.2,18.3,0000.0,0012.52,0003.65,0003.17
2023-04-27 06:22:00,,0828.3,5.01,0.00,23.6,22.1,00.0,32.1,25.2,18.6,0000.0,0011.25,0003.62,0003.12
2023-04-27 06:23:00,,0828.3,5.00,0.00,23.6,22.1,00.0,32.1,25.2,19.2,0000.0,0009.77,0003.57,0003.08
2023-04-27 06:24:00,,0828.3,4.98,0.00,23.7,22.2,00.0,32.1,25.3,20.5,0000.0,0008.18,0003.50,0003.01
2023-04-27 06:25:00,,0828.4,5.00,0.00,23.7,22.3,00.0,32.1,25.3,21.5,0000.0,0007.93,0003.47,0002.98
2023-04-27 06:26:00,,0828.3,5.00,0.00,23.7,22.3,00.0,32.1,25.3,21.8,0000.0,0008.35,0003.48,0002.97
2023-04-27 06:27:00,,0828.4,5.00,0.00,23.7,22.4,00.0,32.1,25.4,21.8,0000.0,0008.70,0003.48,0002.97
2023-04-27 06:28:00,,0828.3,4.99,0.00,23.7,22.4,00.0,32.1,25.4,21.9,0000.0,0008.83,0003.51,0002.98
2023-04-27 06:29:00,,0828.3,4.99,0.00,23.8,22.5,00.0,32.1,25.4,22.0,0000.0,0009.50,0003.50,0002.98
2023-04-27 06:30:00,,0828.3,4.99,0.00,23.8,22.4,00.0,32.1,25.4,21.9,0000.0,0009.15,0003.50,0003.00
2023-04-27 06:31:00,,0828.3,5.00,0.00,23.8,22.4,00.0,32.1,25.4,22.0,0000.0,0008.67,0003.54,0003.08
2023-04-27 06:32:00,,0828.3,5.00,0.00,23.8,22.4,00.0,32.1,25.4,22.0,0000.0,0008.93,0003.63,0003.14
2023-04-27 06:33:00,,0828.2,5.00,0.00,23.8,22.4,00.0,32.1,25.4,22.0,0000.0,0009.07,0003.69,0003.20
2023-04-27 06:34:00,,0828.2,5.00,0.00,23.8,22.4,00.0,32.1,25.4,22.0,0000.0,0009.11,0003.73,0003.24
2023-04-27 06:35:00,,0828.3,5.00,0.00,23.8,22.4,00.0,32.1,25.5,22.0,0000.0,0009.17,0003.77,0003.28
2023-04-27 06:36:00,,0828.3,4.99,0.00,23.8,22.4,00.0,32.1,25.5,21.9,0000.0,0009.18,0003.78,0003.30
2023-04-27 06:37:00,,0828.2,5.00,0.00,23.8,22.4,00.0,32.1,25.4,21.9,0000.0,0008.98,0003.78,0003.31
2023-04-27 06:38:00,,0828.3,5.00,0.00,23.8,22.4,00.0,32.1,25.4,21.9,0000.0,0008.55,0003.75,0003.31
2023-04-27 06:39:00,,0828.2,5.00,0.00,23.8,22.4,00.0,32.1,25.4,22.0,0000.0,0008.15,0003.71,0003.30
2023-04-27 06:40:00,,0828.2,5.00,0.00,23.8,22.4,00.0,32.1,25.5,22.0,0000.0,0007.50,0003.71,0003.30
2023-04-27 06:41:00,,0828.3,4.99,0.00,23.8,22.4,00.0,32.1,25.5,22.0,0000.0,0007.63,0003.72,0003.32
2023-04-27 06:42:00,,0828.3,5.00,0.00,23.8,22.5,00.0,32.1,25.5,22.0,0000.0,0008.05,0003.74,0003.33
2023-04-27 06:43:00,,0828.3,5.00,0.00,23.8,22.5,00.0,32.1,25.5,22.0,0000.0,0007.93,0003.74,0003.33
2023-04-27 06:44:00,,0828.3,5.00,0.00,23.9,22.5,00.0,32.2,25.5,22.0,0000.0,0008.01,0003.75,0003.34
2023-04-27 06:45:00,,0828.3,5.00,0.00,23.9,22.5,00.0,32.2,25.5,22.1,0000.0,0008.40,0003.77,0003.36
2023-04-27 06:46:00,,0828.2,5.00,0.00,23.9,22.5,00.0,32.2,25.5,21.9,0000.0,0008.44,0003.78,0003.36
2023-04-27 06:47:00,,0828.2,5.00,0.00,23.9,22.6,00.0,32.2,25.5,21.9,0000.0,0008.49,0003.81,0003.38
2023-04-27 06:48:00,,0828.3,5.00,0.00,23.9,22.6,00.0,32.2,25.5,22.0,0000.0,0008.83,0003.83,0003.40
2023-04-27 06:49:00,,0828.2,5.00,0.00,23.9,22.6,00.0,32.2,25.6,22.0,0000.0,0008.98,0003.86,0003.42
2023-04-27 06:50:00,,0828.2,5.00,0.00,23.9,22.6,00.0,32.2,25.5,21.7,0000.0,0009.35,0003.90,0003.43
2023-04-27 06:51:00,,0828.2,5.00,0.00,23.9,22.7,00.0,32.2,25.6,20.5,0000.0,0009.35,0003.92,0003.43
2023-04-27 06:52:00,,0828.2,5.00,0.00,24.0,22.7,00.0,32.2,25.6,20.1,0000.0,0009.15,0003.91,0003.41
2023-04-27 06:53:00,,0828.2,4.99,0.00,24.0,22.7,00.0,32.2,25.6,21.5,0000.0,0008.79,0003.89,0003.40
2023-04-27 06:54:00,,0828.2,4.99,0.00,24.0,22.7,00.0,32.2,25.6,21.4,0000.0,0009.47,0003.89,0003.39
2023-04-27 06:55:00,,0828.2,5.00,0.00,24.0,22.6,00.0,32.2,25.6,21.4,0000.0,0009.42,0003.90,0003.39
2023-04-27 06:56:00,,0828.2,5.01,0.00,24.0,22.6,00.0,32.3,25.6,21.7,0000.0,0009.10,0003.90,0003.39
2023-04-27 06:57:00,,0828.2,5.00,0.00,24.0,22.6,00.0,32.3,25.6,21.5,0000.0,0009.15,0003.90,0003.39
2023-04-27 06:58:00,,0828.2,5.00,0.00,24.0,22.6,00.0,32.3,25.6,21.4,0000.0,0009.40,0003.90,0003.39
2023-04-27 06:59:00,,0828.2,4.99,0.00,24.0,22.6,00.0,32.3,25.6,21.3,0000.0,0009.01,0003.91,0003.37
